When you browse on this site, cookies collect data to enhance your experience and personalize the content and advertising you see.
Visit our Privacy Policy to learn more. By continuing to use the site, you agree to this use of cookies and data.
  • In Switzerland
  • List of Countries
  • For 7 days
  • Water Temperature
  • Weather Map
  • Weather Widgets
  • user-avatar
    Login

    Hourly Weather Kazinka

    Today, 26 August, Monday

    Time Temperature Precipitation Wind Pressure Humidity
    00:00 +13°C° 0 mm 3 mps 752 mmHg 88%
    01:00 +13°C° 0 mm 2 mps 752 mmHg 89%
    02:00 +13°C° 0 mm 2 mps 752 mmHg 90%
    03:00 +12°C° 0 mm 1 mps 753 mmHg 90%
    04:00 +12°C° 0 mm 1 mps 753 mmHg 91%
    05:00 +12°C° 0 mm 1 mps 752 mmHg 91%
    06:00 +11°C° 0 mm 1 mps 752 mmHg 91%
    07:00 +13°C° 0 mm 1 mps 753 mmHg 85%
    08:00 +14°C° 0 mm 1 mps 753 mmHg 78%
    09:00 +16°C° 0 mm 1 mps 753 mmHg 72%
    10:00 +18°C° 0 mm 1 mps 753 mmHg 67%
    11:00 +20°C° 0 mm 1 mps 753 mmHg 62%
    12:00 +19°C° 0 mm 0 mps 753 mmHg 57%
    13:00 +21°C° 0 mm 1 mps 752 mmHg 54%
    14:00 +22°C° 0 mm 1 mps 752 mmHg 52%
    15:00 +22°C° 0 mm 1 mps 752 mmHg 50%
    16:00 +22°C° 0 mm 1 mps 751 mmHg 53%
    17:00 +22°C° 0 mm 1 mps 751 mmHg 57%
    18:00 +21°C° 0 mm 1 mps 750 mmHg 60%
    19:00 +20°C° 0 mm 1 mps 750 mmHg 65%
    20:00 +19°C° 0 mm 1 mps 750 mmHg 69%
    21:00 +16°C° 0 mm 1 mps 750 mmHg 73%
    22:00 +16°C° 0 mm 2 mps 749 mmHg 74%
    23:00 +16°C° 0 mm 2 mps 749 mmHg 76%

    Tomorrow, 27 August, Tuesday

    Time Temperature Precipitation Wind Pressure Humidity
    00:00 +15°C° 0 mm 2 mps 749 mmHg 77%
    01:00 +14°C° 0 mm 3 mps 748 mmHg 77%
    02:00 +14°C° 0 mm 3 mps 748 mmHg 77%
    03:00 +14°C° 0 mm 3 mps 748 mmHg 78%
    04:00 +14°C° 0 mm 4 mps 747 mmHg 78%
    05:00 +14°C° 0 mm 4 mps 747 mmHg 79%
    06:00 +14°C° 0 mm 4 mps 746 mmHg 80%
    07:00 +17°C° 0 mm 4 mps 746 mmHg 79%
    08:00 +17°C° 0 mm 5 mps 746 mmHg 77%
    09:00 +19°C° 0 mm 5 mps 746 mmHg 76%
    10:00 +20°C° 0.5 mm 5 mps 746 mmHg 74%
    11:00 +20°C° 0.5 mm 5 mps 745 mmHg 71%
    12:00 +21°C° 0.5 mm 5 mps 745 mmHg 69%
    13:00 +21°C° 0.2 mm 5 mps 745 mmHg 67%
    14:00 +22°C° 0.2 mm 6 mps 745 mmHg 64%
    15:00 +22°C° 0.2 mm 6 mps 745 mmHg 62%
    16:00 +22°C° 0 mm 5 mps 745 mmHg 63%
    17:00 +21°C° 0 mm 4 mps 745 mmHg 65%
    18:00 +20°C° 0 mm 4 mps 745 mmHg 66%
    19:00 +19°C° 0 mm 4 mps 745 mmHg 69%
    20:00 +18°C° 0 mm 4 mps 746 mmHg 72%
    21:00 +15°C° 0 mm 4 mps 746 mmHg 75%
    22:00 +14°C° 0 mm 3 mps 746 mmHg 78%
    23:00 +13°C° 0 mm 3 mps 746 mmHg 82%

    Day after tomorrow, 28 August, Wednesday

    Time Temperature Precipitation Wind Pressure Humidity
    00:00 +13°C° 0 mm 3 mps 747 mmHg 85%
    01:00 +12°C° 0 mm 3 mps 747 mmHg 86%
    02:00 +11°C° 0 mm 3 mps 747 mmHg 86%
    03:00 +11°C° 0 mm 3 mps 747 mmHg 87%
    04:00 +10°C° 0 mm 4 mps 747 mmHg 88%
    05:00 +10°C° 0 mm 4 mps 748 mmHg 88%
    06:00 +8°C° 0 mm 4 mps 748 mmHg 89%
    07:00 +10°C° 0 mm 4 mps 748 mmHg 81%
    08:00 +10°C° 0 mm 5 mps 748 mmHg 73%
    09:00 +12°C° 0 mm 5 mps 749 mmHg 65%
    10:00 +13°C° 0 mm 5 mps 749 mmHg 61%
    11:00 +14°C° 0 mm 6 mps 749 mmHg 58%
    12:00 +15°C° 0 mm 6 mps 749 mmHg 54%
    13:00 +15°C° 0 mm 6 mps 749 mmHg 52%
    14:00 +15°C° 0 mm 6 mps 749 mmHg 50%
    15:00 +16°C° 0 mm 6 mps 749 mmHg 48%
    16:00 +15°C° 0 mm 6 mps 749 mmHg 51%
    17:00 +14°C° 0 mm 5 mps 749 mmHg 54%
    18:00 +14°C° 0 mm 4 mps 749 mmHg 56%
    19:00 +12°C° 0 mm 4 mps 750 mmHg 61%
    20:00 +11°C° 0 mm 3 mps 750 mmHg 65%
    21:00 +10°C° 0 mm 3 mps 750 mmHg 70%
    22:00 +9°C° 0 mm 3 mps 750 mmHg 72%
    23:00 +9°C° 0 mm 3 mps 751 mmHg 75%

    29 August, Thursday

    Time Temperature Precipitation Wind Pressure Humidity
    00:00 +8°C° 0 mm 2 mps 751 mmHg 78%
    01:00 +8°C° 0 mm 2 mps 751 mmHg 80%
    02:00 +7°C° 0 mm 2 mps 751 mmHg 82%
    03:00 +7°C° 0 mm 2 mps 751 mmHg 84%
    04:00 +7°C° 0 mm 2 mps 751 mmHg 85%
    05:00 +7°C° 0 mm 2 mps 752 mmHg 87%
    06:00 +6°C° 0 mm 2 mps 752 mmHg 88%
    07:00 +8°C° 0 mm 2 mps 752 mmHg 81%
    08:00 +10°C° 0 mm 2 mps 752 mmHg 74%
    09:00 +12°C° 0 mm 3 mps 752 mmHg 67%
    10:00 +13°C° 0 mm 3 mps 752 mmHg 60%
    11:00 +14°C° 0 mm 3 mps 752 mmHg 54%
    12:00 +16°C° 0 mm 3 mps 751 mmHg 48%
    13:00 +17°C° 0 mm 3 mps 751 mmHg 49%
    14:00 +18°C° 0 mm 3 mps 751 mmHg 49%
    15:00 +18°C° 0 mm 3 mps 750 mmHg 49%
    16:00 +18°C° 0 mm 3 mps 750 mmHg 55%
    17:00 +18°C° 0 mm 2 mps 750 mmHg 60%
    18:00 +17°C° 0 mm 2 mps 750 mmHg 65%
    19:00 +16°C° 0 mm 2 mps 750 mmHg 69%
    20:00 +15°C° 0 mm 1 mps 749 mmHg 74%
    21:00 +14°C° 0 mm 1 mps 749 mmHg 79%
    22:00 +13°C° 0 mm 2 mps 749 mmHg 80%
    23:00 +13°C° 0 mm 2 mps 749 mmHg 82%

    30 August, Friday

    Time Temperature Precipitation Wind Pressure Humidity
    00:00 +12°C° 0 mm 3 mps 749 mmHg 84%
    01:00 +12°C° 0 mm 3 mps 749 mmHg 84%
    02:00 +11°C° 0 mm 3 mps 748 mmHg 85%
    03:00 +11°C° 0 mm 3 mps 748 mmHg 86%
    04:00 +11°C° 0 mm 3 mps 748 mmHg 87%
    05:00 +11°C° 0 mm 3 mps 748 mmHg 87%
    06:00 +11°C° 0 mm 4 mps 747 mmHg 88%
    07:00 +12°C° 0 mm 4 mps 747 mmHg 82%
    08:00 +14°C° 0 mm 5 mps 747 mmHg 76%
    09:00 +16°C° 0 mm 5 mps 747 mmHg 70%
    10:00 +17°C° 0 mm 5 mps 747 mmHg 65%
    11:00 +20°C° 0 mm 6 mps 747 mmHg 61%
    12:00 +21°C° 0 mm 6 mps 748 mmHg 57%
    13:00 +21°C° 0.1 mm 5 mps 747 mmHg 58%
    14:00 +21°C° 0.1 mm 5 mps 747 mmHg 59%
    15:00 +21°C° 0.1 mm 5 mps 747 mmHg 60%
    16:00 +20°C° 0.3 mm 4 mps 747 mmHg 66%
    17:00 +19°C° 0.3 mm 4 mps 747 mmHg 72%
    18:00 +18°C° 0.3 mm 3 mps 747 mmHg 77%
    19:00 +17°C° 0 mm 3 mps 747 mmHg 81%
    20:00 +15°C° 0 mm 2 mps 748 mmHg 85%
    21:00 +14°C° 0 mm 2 mps 748 mmHg 88%
    22:00 +13°C° 0 mm 2 mps 748 mmHg 86%
    23:00 +13°C° 0 mm 2 mps 748 mmHg 85%

    31 August, Saturday

    Time Temperature Precipitation Wind Pressure Humidity
    00:00 +12°C° 0 mm 2 mps 748 mmHg 83%
    01:00 +12°C° 0 mm 2 mps 748 mmHg 82%
    02:00 +10°C° 0 mm 2 mps 748 mmHg 82%
    03:00 +10°C° 0 mm 2 mps 748 mmHg 82%
    04:00 +11°C° 0 mm 1 mps 748 mmHg 83%
    05:00 +11°C° 0 mm 1 mps 748 mmHg 85%
    06:00 +11°C° 0 mm 1 mps 748 mmHg 86%
    07:00 +12°C° 0 mm 2 mps 748 mmHg 83%
    08:00 +14°C° 0 mm 2 mps 748 mmHg 80%
    09:00 +16°C° 0 mm 2 mps 748 mmHg 78%
    10:00 +18°C° 0 mm 2 mps 748 mmHg 72%
    11:00 +19°C° 0 mm 2 mps 748 mmHg 67%
    12:00 +21°C° 0 mm 2 mps 747 mmHg 62%
    13:00 +21°C° 0 mm 2 mps 747 mmHg 59%
    14:00 +22°C° 0 mm 3 mps 747 mmHg 55%
    15:00 +24°C° 0 mm 3 mps 746 mmHg 51%
    16:00 +22°C° 0 mm 3 mps 746 mmHg 56%
    17:00 +22°C° 0 mm 3 mps 746 mmHg 60%
    18:00 +21°C° 0 mm 2 mps 746 mmHg 65%
    19:00 +19°C° 0 mm 2 mps 746 mmHg 69%
    20:00 +18°C° 0 mm 2 mps 746 mmHg 74%
    21:00 +17°C° 0 mm 2 mps 746 mmHg 78%
    22:00 +16°C° 0 mm 2 mps 746 mmHg 78%
    23:00 +15°C° 0 mm 2 mps 746 mmHg 78%
    Show more